Powrót do katalogu

FENGYUN 1C DEB

AktywnySSO
NORAD 31324·DEBRIS·🇨🇳 China

Wystrzelony May 10, 1999 z Taiyuan Satellite Launch Center

Loading…

Następne Przeloty (najbliższe 24 godziny)

TLE

Starzejące sięSource: Space-Track

Epoka: Sep 10, 2026, 01:00 UTC

1 31324U 99025BQC 26253.04212153  .00000117  00000-0  83895-4 0  9990
2 31324  99.1314 185.6158 0048657 258.4250 101.1458 14.14842076  2034

Śledź FENGYUN 1C DEB w czasie rzeczywistym z AllMySat

Download on the App Store